This demonstration page uses our WeatherBlox Daily Observations layout. Learn more.

Left ArrowRight Arrow

36.19886, -115.1175

Hourly Observations for June 1, 2020

Temp ( °F °C ) Dew Point ( °F °C ) Humidity (%) Winds ( mph kmh ) Pressure ( in mb ) Visibility ( mi km ) Precip ( " mm )
12:53 am 00:53 Clear 82 27.8 30 -1.1 15 15 S 6 9 29.82 1010 10 16 N/A
1:53 am 01:53 Clear 78 25.6 30 -1.1 17 17 N N/A 29.82 1010 10 16 N/A
2:53 am 02:53 Clear 76 24.4 31 -0.6 19 19 ESE 7 11 29.82 1010 10 16 N/A
3:53 am 03:53 Clear 76 24.4 32 undefined 20 20 N N/A 29.83 1010 10 16 N/A
4:53 am 04:53 Clear 74 23.3 34 1.1 23 23 WNW 5 7 29.85 1011 10 16 N/A
5:53 am 05:53 Sunny 72 22.2 33 0.6 24 24 NW 5 7 29.86 1011 10 16 N/A
6:53 am 06:53 Sunny 77 25 35 1.7 22 22 N N/A 29.88 1012 10 16 N/A
7:53 am 07:53 Sunny 80 26.7 33 0.6 18 18 SSE 5 7 29.90 1012 10 16 N/A
8:53 am 08:53 Sunny 84 28.9 34 1.1 17 17 N N/A 29.91 1013 10 16 N/A
9:53 am 09:53 Sunny 89 31.7 33 0.6 14 14 SE 8 13 29.90 1013 10 16 N/A
10:53 am 10:53 Sunny 92 33.3 31 -0.6 11 11 SE 10 17 29.90 1013 10 16 N/A
11:53 am 11:53 Sunny 95 35 29 -1.7 9 9 SE 17 28 29.88 1012 10 16 N/A
12:53 pm 12:53 Sunny 98 36.7 28 -2.2 8 8 SSW 16 26 29.86 1011 10 16 N/A
1:53 pm 13:53 Sunny 98 36.7 30 -1.1 9 9 SW 18 30 29.85 1011 10 16 N/A
2:53 pm 14:53 Sunny 98 36.7 30 -1.1 9 9 SSW 9 15 29.83 1010 10 16 N/A
3:53 pm 15:53 Sunny 101 38.3 26 -3.3 7 7 S 17 28 29.80 1009 10 16 N/A
4:53 pm 16:53 Sunny 99 37.2 27 -2.8 8 8 SW 13 20 29.79 1009 10 16 N/A
5:53 pm 17:53 Sunny 98 36.7 28 -2.2 8 8 SW 9 15 29.79 1009 10 16 N/A
6:53 pm 18:53 Sunny 97 36.1 29 -1.7 9 9 W 9 15 29.80 1009 10 16 N/A
7:53 pm 19:53 Sunny 94 34.4 29 -1.7 10 10 W 10 17 29.81 1010 10 16 N/A
8:53 pm 20:53 Clear 92 33.3 30 -1.1 11 11 W 5 7 29.83 1010 10 16 N/A
9:53 pm 21:53 Clear 89 31.7 31 -0.6 12 12 NE 3 6 29.85 1011 10 16 N/A
10:53 pm 22:53 Clear 87 30.6 31 -0.6 13 13 N N/A 29.87 1012 10 16 N/A
11:53 pm 23:53 Clear 86 30 31 -0.6 14 14 WNW 5 7 29.88 1012 10 16 N/A

Powered by AerisWeather